Regional Weather Roundup
Issued by NWS

Home | Current Version | Previous Version | Graphics & Text | Print | Product List | Glossary On
Versions: 1 2 3 4 5 6 7 8 9 10 11 12 13 14 15 16 17 18 19 20 21 22 23 24 25 26 27 28 29 30 31 32 33 34 35 36 37 38 39 40 41 42 43 44 45 46 47 48 49 50
000
ASUS43 KBIS 212310
RWRND

NORTH DAKOTA REGIONAL WEATHER ROUNDUP
NATIONAL WEATHER SERVICE BISMARCK ND
600 PM CDT SAT OCT 21 2017

NOTE: "FAIR" INDICATES FEW OR NO CLOUDS BELOW 12,000 FEET WITH NO
SIGNIFICANT WEATHER AND/OR OBSTRUCTIONS TO VISIBILITY.


NDZ001>003-009>011-017-220000-
NORTHWEST NORTH DAKOTA

CITY           SKY/WX    TMP DP  RH WIND       PRES   REMARKS
WILLISTON      CLOUDY    53  33  46 NW23G31   29.72R
MINOT          CLOUDY    50  36  58 W31G40    29.60R
MINOT AFB      CLOUDY    49  35  59 NW31G37   29.58R
$$

NDZ018>021-031>035-040>046-220000-
SOUTHWEST NORTH DAKOTA

CITY           SKY/WX    TMP DP  RH WIND       PRES   REMARKS
BISMARCK       CLOUDY    52  37  56 W20G26    29.72R
DICKINSON      PTCLDY    51  27  39 W25G36    29.72R
GARRISON         N/A     48  36  63 NW36G44   29.65R
HETTINGER ARPT MOCLDY    52  26  36 NW23G30   29.80R
$$

NDZ004>008-012>016-024-026-027-054-220000-
NORTHEAST NORTH DAKOTA

CITY           SKY/WX    TMP DP  RH WIND       PRES   REMARKS
GRAND FORKS    CLOUDY    57  44  62 W14       29.56R
GRND FRKS AFB  CLOUDY    55  42  61 W9        29.56R
DEVILS LAKE    CLOUDY    49  41  74 W15       29.57R
$$

NDZ022-023-025-028>030-036>039-047>053-220000-
SOUTHEAST NORTH DAKOTA

CITY           SKY/WX    TMP DP  RH WIND       PRES   REMARKS
FARGO          CLOUDY    56  44  64 W16       29.61R
JAMESTOWN      CLOUDY    50  41  71 W16       29.64R
$$





USA.gov is the U.S. government's official web portal to all federal, state and local government web resources and services.